www.pogodaiklimat.ru

Погода и климат >> Архив погоды >> Буркина-Фасо >> Ouahigouya


ПОГОДА в Ouahigouya

  • Прогноз погоды в Ouahigouya
  • Монитор погоды в Ouahigouya
  • Климат города

АРХИВ ПОГОДЫ в Ouahigouya

Время (UTC), дата Ветер
(напр.,м/с)
 
Видим.   Явления Облачность Т
(С)
Тd
(С)
f
(%)
Тe
(С)
Тes
(С)
Комфортность P
(гПа)
Po
(гПа)
Тmin
(С)
Tmax
(С)
R
(мм)
R24
(мм)
S
(см)
06 19.04 В 1 10 км 9/0
[Ci sp]
+27.4 +1.4 19 +26 +26 жарко 1006.1 969.6 +27.4
09 19.04 В 3 10 км 9/0
[Ci sp]
+36.0 -6.5 6 +32 +39 жарко 1007.7 971.3
12 19.04 В 2 10 км 9/0
[Ci sp]
+40.6 -8.4 4 +36 +54 опасность
солнечного
удара
1005.9 969.8
15 19.04 СВ 2 10 км 9/0
[Ci sp]
+41.6 -6.6 5 +37 +47 очень
жарко
1003.9 967.7
18 19.04 СВ 1 10 км 9/0
[Ci sp]
+39.5 +2.0 10 +36 +36 очень
жарко
1004.2 967.8 +42.2
21 19.04 СВ 2 10 км 9/0
[Ci sp]
+33.9 +4.8 16 +31 +31 жарко 1004.6 968.4
00 20.04 В 2 10 км 9/0
[Ci sp]
+32.0 +3.1 16 +29 +29 жарко 1004.6 968.5
03 20.04 В 2 10 км 9/0
[Ci sp]
+28.7 +2.8 19 +27 +27 жарко 1004.0 967.8
06 20.04 В 1 10 км 9/0
[Ci sp]
+27.3 +4.0 22 +26 +26 жарко 1004.9 968.5 +27.3
09 20.04 Ю 1 10 км 9/0
[Ci sp]
+37.0 +6.1 15 +33 +43 жарко 1006.4 970.1
12 20.04 ЮВ 2 10 км 9/0
[Ci sp]
+40.2 +7.1 13 +38 +56 опасность
солнечного
удара
1005.2 969.0
15 20.04 Ю 1 10 км 9/1 600 м
[Sc Ci sp]
+41.2 +4.9 11 +38 +49 очень
жарко
1003.8 967.5
18 20.04 штиль 0 10 км 9/0
[Ac trans Ci sp]
+40.0 +7.4 14 +38 +38 очень
жарко
1003.5 967.2 +42.8
21 20.04 В 1 10 км 9/0
[Ci sp]
+35.1 +7.9 19 +33 +33 жарко 1004.5 968.3
00 21.04 В 1 10 км 9/0
[Ci sp]
+33.2 +5.4 18 +31 +31 жарко 1004.5 968.5
03 21.04 ЮЗ 3 10 км 9/0
[Ac trans Ci sp]
+31.5 +0.3 14 +29 +29 жарко 1004.1 968.0
06 21.04 штиль 0 10 км 9/0
[Ci sp]
+29.4 +7.9 26 +29 +29 жарко 1004.8 968.5 +29.4
09 21.04 Ю 3 10 км 9/0
[Ci sp]
+35.3 +16.0 32 +38 +45 очень
душно
1006.2 969.9
12 21.04 Ю 2 10 км 9/0
[Ci sp]
+39.5 +14.6 23 +40 +58 опасность
солнечного
удара
1005.3 969.1
15 21.04 СВ 1 10 км 9/1 600 м
[Sc Ac trans Ci sp]
+42.0 +12.8 18 +42 +49 опасность
перегрева
1003.4 967.4
18 21.04 СВ 1 10 км 9/1 600 м
[Sc Ci sp]
+40.0 +13.1 20 +40 +40 очень
душно
1003.7 967.4 +42.6
21 21.04 СВ 2 10 км 9/0
[Ci sp]
+36.7 +8.9 18 +35 +35 очень
жарко
1004.7 968.6
00 22.04 Ю 5 10 км 9/0
[Ci sp]
+34.7 +15.1 31 +36 +36 душно 1006.1 970.0
03 22.04 Ю 3 10 км 9/0
[Ci sp]
+31.6 +16.7 41 +35 +35 очень
душно
1004.7 968.6
06 22.04 ЮЗ 2 10 км 9/0
[Ac As Ci sp]
+30.5 +14.4 38 +33 +33 душно 1006.3 970.0 +30.5
09 22.04 Ю 3 15 км 9/0
[Ci sp]
+33.0 +19.0 44 +38 +45 очень
душно
1008.3 971.9
12 22.04 Ю 1 15 км 9/0
[Ci sp]
+37.9 +17.9 31 +41 +63 опасность
перегрева
1006.4 970.3
15 22.04 Ю 1 15 км 9/6 600 м
[Cu Sc Ci sp]
+39.4 +15.6 25 +41 +46 опасность
перегрева
1004.2 968.0
18 22.04 Ю 1 15 км {дождь} 9/3 600 м
[Cu Sc Ac As Ci sp]
+38.6 +14.1 23 +39 +39 душно 1004.3 968.0 +41.0
21 22.04 ЮЗ 3 10 км гроза без осадков {дождь} 10/1 1200 м
[Cb cap Ac As]
+31.9 +15.5 37 +34 +34 душно 1006.3 969.7
00 23.04 СЗ 4 10 км гроза, ливневой дождь 10/1 1200 м
[Cb cap Ac As]
+28.0 +17.8 54 +32 +32 душно 1007.5 970.9 3
03 23.04 ЮВ 3 10 км {гроза, дождь} 9/0
[Ac As Ci sp]
+26.0 +19.2 66 +31 +31 очень
душно
1007.5 970.9
06 23.04 ЮВ 2 10 км {гроза, дождь} 9/0
[Ac As Ci sp]
+27.0 +16.6 53 +31 +31 душно 1009.2 972.5 +25.5 3
09 23.04 Ю 6 15 км 9/0
[Ac As Ci sp]
+27.3 +18.8 60 +32 +34 очень
душно
1011.0 973.9
12 23.04 ЮЗ 6 15 км 9/0
[Ac trans Ci sp]
+36.5 +13.3 25 +37 +43 очень
жарко
1008.9 972.1
15 23.04 ЮЗ 4 15 км 9/0
[Ac trans Ci sp]
+38.6 +12.9 22 +39 +45 душно 1005.4 968.8
18 23.04 ЮЗ 1 15 км 9/0
[Ac trans Ci sp]
+37.2 +13.0 24 +37 +38 очень
жарко
1004.9 968.3 +39.9
21 23.04 Ю 2 10 км 9/0
[Ci sp]
+33.9 +15.9 34 +36 +36 душно 1007.8 970.9
00 24.04 Ю 3 10 км 9/0
[Ci sp]
+31.0 +17.1 43 +35 +35 очень
душно
1008.2 971.6
03 24.04 ЮЗ 2 10 км 9/0
[Ci sp]
+29.5 +19.6 55 +35 +35 очень
душно
1006.2 969.8
06 24.04 ЮЗ 2 15 км 9/0
[Ac trans Ci sp]
+28.3 +20.6 63 +35 +35 очень
душно
1007.9 971.2 +28.3
09 24.04 ЮЗ 3 10 км 9/0
[Ac As Ci sp]
+32.0 +20.0 49 +38 +44 очень
душно
1010.2 973.5
12 24.04 Ю 2 15 км 9/0
[Ci sp]
+37.2 +18.1 33 +41 +59 опасность
перегрева
1008.5 972.0
15 24.04 Ю 2 15 км 9/1 600 м
[Sc Ci sp]
+39.6 +16.6 26 +42 +51 опасность
перегрева
1005.6 969.2
18 24.04 ЮЗ 2 15 км 9/1 600 м
[Sc Ci sp]
+37.7 +17.0 30 +40 +41 очень
душно
1004.9 968.4 +40.3
21 24.04 ЮЗ 3 10 км 9/0
[Ci sp]
+35.0 +18.2 37 +39 +39 очень
душно
1006.8 970.3
00 25.04 ЮЗ 3 10 км 9/0
[Ci sp]
+32.7 +19.5 46 +38 +38 очень
душно
1006.8 970.4
03 25.04 ЮЗ 3 10 км 9/0
[Ci sp]
+31.4 +18.6 47 +36 +36 очень
душно
1005.1 968.8
06 25.04 Ю 2 15 км 9/0
[Ci sp]
+30.0 +20.2 56 +37 +37 очень
душно
1006.5 970.1 +30.0
09 25.04 З 4 15 км 9/0
[Ci sp]
+34.0 +19.1 42 +39 +45 очень
душно
1008.7 972.2
12 25.04 СЗ 3 15 км 9/1 600 м
[Sc Ci sp]
+38.6 +17.2 29 +41 +55 опасность
перегрева
1007.0 970.7
15 25.04 СЗ 2 15 км 9/3 600 м
[Cu Sc Ci sp]
+40.6 +14.6 22 +41 +49 опасность
перегрева
1003.5 967.4
18 25.04 ЮВ 4 10 км в посл. час гроза 9/4 600 м
[Cb cap Ac As Ci sp]
+36.6 +16.6 31 +39 +39 очень
душно
1004.2 967.8 +41.6
21 25.04 Ю 5 10 км 9/0
[Ac trans Ci sp]
+33.6 +16.9 37 +37 +37 очень
душно
1006.1 969.6
00 26.04 ЮЗ 5 10 км 9/0
[Ci sp]
+32.1 +18.2 44 +37 +37 очень
душно
1005.4 969.2
03 26.04 ЮЗ 5 10 км 9/0
[Ci sp]
+30.5 +18.5 49 +35 +35 очень
душно
1004.4 968.2

 

Местоположение метеостанции Ouahigouya (Буркина-Фасо): широта 13.57 долгота -2.42 высота над уровнем моря 336 м.

В архиве по умолчанию представлена погода в Ouahigouya за последнюю неделю. Архивные данные за месяц целиком и за предыдущие месяцы, начиная с января 2011 года, Вы можете получить, выбрав интересующий диапазон дат из раскрывающегося списка и нажав кнопку "Ввод!".

Внимание! Время в таблицах - всемирное. Для получения местного времени необходимо прибавить поправку, которая в Ouahigouya равна 0 ч.

Смотрите также архив погоды в соседних городах и на ближайших метеорологических станциях:

Погода в Ouagadougou (Буркина-Фасо) (167 км)
Погода в Dedougou (Буркина-Фасо) (168 км)
Погода в Mopti (Мали) (210 км)
Погода в Boromo (Буркина-Фасо) (210 км)
Погода в San (Мали) (262 км)
Погода в Dori (Буркина-Фасо) (263 км)
Погода в Po (Буркина-Фасо) (302 км)
Погода в Navrongo (Гана) (330 км)
Погода в Bobo-Dioulasso (Буркина-Фасо) (337 км)
Погода в Fada N`Gourma (Буркина-Фасо) (348 км)

Пояснения к столбцам:

Ветер - указаны скорость ветра в м/с - средняя за 10 мин, порывы в срок и между сроками (в фигурных скобках) и направление, откуда дует ветер: С - северный, СВ - северо-восточный, В - восточный, ЮВ - юго-восточный, Ю - южный, ЮЗ - юго-западный, З - западный, СЗ - северо-западный.
Видимость - горизонтальная дальность видимости в метрах или километрах. При видимости от 1 до 10 км при отсутствии осадков обычно наблюдается дымка, при ухудшении видимости до 1 км и менее - туман. В сухую погоду видимость может ухудшаться дымом, пылью или мглою.
Явления - указаны атмосферные явления, наблюдавшиеся в срок или в последний час перед сроком; фигурными скобками обозначены явления, наблюдавшиеся между сроками (за 1-3 часа до срока); квадратными скобками обозначены град или гололедные отложения с указанием их диаметра в мм.
Облачность - указаны через наклонную черту общая и нижняя облачность в баллах и высота нижней границы облаков в метрах; квадратными скобками обозначены формы облаков: Ci - перистые, Cs - перисто-слоистые, Cc - перисто-кучевые, Ac - высококучевые, As - высокослоистые, Sc - слоисто-кучевые, Ns - слоисто-дождевые, Cu - кучевые, Cb - кучево-дождевые. Подробнее классификацию облаков см. в Атласе облаков (PDF).
T - Температура воздуха - температура, измеренная на высоте 2 м над землей.
Td - Температура точки росы - температура, при понижении до которой содержащийся в воздухе водяной пар достигнет насыщения.
f - Относительная влажность воздуха - влажноcть воздуха, измеренная на высоте 2 м над землей.
Te - Эффективная температура - температура, которую ощущает одетый по сезону человек в тени. Характеристика душности погоды. При расчете учитывается влияние влажности воздуха и скорости ветра на теплоощущения человека.
Tes - Эффективная температура на солнце - температура, которую ощущает человек, с поправкой на солнечный нагрев. Характеристика знойности погоды. Зависит от высоты солнца над горизонтом, облачности и скорости ветра. Ночью, в пасмурную погоду, а также при ветре 12 м/с и более поправка равна нулю.
P - Атмосферное давление - приведенное к уровню моря атмосферное давление.
Po - Атмосферное давление - измеренное на уровне метеостанции атмосферное давление.
Tmin - Минимальная температура - минимум температуры воздуха на высоте 2 м над землей.
Tmax - Максимальная температура - максимум температуры воздуха на высоте 2 м над землей.
R - Количество осадков - Количество выпавших осадков за период времени, мм. При наведении курсора мыши на число - период времени, за который выпало указанное количество осадков.
R24 - Количество осадков - Количество выпавших осадков за 24 часа, мм.
S - Снежный покров - Высота снежного покрова, см. При наведении курсора мыши на число - состояние снежного покрова и степень покрытия местности в баллах.